Total_Precipitation_Accumulation
2.03 1.57 1.02 0.61 0.49 0.45 0.42 0.53 0.64 0.64 0.62 0.67 0.71 0.59 0.57 0.51 0.50 0.52 0.50 0.54 0.65 0.83 1.00 1.14 1.31 1.54 1.73 1.72 1.76 1.91 2.02 2.09 2.16 2.20 2.11 1.98 1.89 1.78 1.67 1.52 1.38 1.24 1.16 1.20
1.71 1.16 0.54 0.39 0.42 0.41 0.40 0.47 0.55 0.57 0.56 0.66 0.71 0.64 0.57 0.56 0.54 0.52 0.50 0.49 0.61 0.75 0.87 1.01 1.19 1.38 1.56 1.67 1.72 1.90 2.04 2.08 2.05 2.10 2.17 2.07 2.07 2.03 1.96 1.88 1.72 1.55 1.41 1.39
1.33 0.78 0.44 0.46 0.51 0.45 0.36 0.38 0.45 0.50 0.55 0.70 0.80 0.79 0.61 0.56 0.55 0.47 0.45 0.50 0.60 0.76 0.82 0.91 1.06 1.19 1.32 1.52 1.75 1.87 1.96 2.04 2.07 2.26 2.59 2.47 2.31 2.22 2.12 2.03 1.94 1.80 1.68 1.61
1.17 0.67 0.50 0.50 0.45 0.40 0.38 0.30 0.38 0.45 0.66 0.82 0.83 1.03 0.68 0.61 0.60 0.50 0.45 0.50 0.63 0.71 0.74 0.81 1.01 1.10 1.15 1.31 1.59 1.87 2.00 2.09 2.23 2.43 2.62 2.58 2.28 2.08 2.01 2.01 2.01 1.97 1.79 1.71
1.11 0.76 0.61 0.56 0.42 0.38 0.39 0.30 0.37 0.45 0.58 0.73 0.62 0.79 0.72 0.57 0.61 0.61 0.57 0.58 0.68 0.73 0.75 0.81 0.98 1.09 1.08 1.15 1.36 1.64 1.91 2.02 2.22 2.37 2.44 2.55 2.32 2.02 1.99 2.01 1.97 1.97 1.89 1.71
0.77 0.65 0.68 0.57 0.39 0.38 0.40 0.39 0.46 0.53 0.65 0.74 0.51 0.62 0.70 0.61 0.63 0.65 0.66 0.72 0.80 0.80 0.79 0.84 0.96 0.98 0.97 1.00 1.14 1.33 1.55 1.68 1.79 1.98 2.15 2.29 2.31 2.19 2.03 1.91 1.85 1.81 1.81 1.76
0.91 0.73 0.61 0.52 0.51 0.45 0.45 0.62 0.84 0.94 0.85 0.63 0.41 0.46 0.64 0.58 0.57 0.60 0.69 0.75 0.78 0.78 0.73 0.78 0.86 0.82 0.81 0.84 0.96 1.09 1.22 1.36 1.46 1.57 1.75 1.92 2.05 2.13 2.10 1.97 1.86 1.74 1.65 1.62
0.90 0.99 0.58 0.47 0.48 0.47 0.40 0.50 0.68 0.71 0.49 0.39 0.27 0.40 0.58 0.57 0.58 0.58 0.66 0.67 0.66 0.66 0.68 0.79 0.88 0.82 0.79 0.80 0.82 0.84 0.96 1.14 1.24 1.29 1.43 1.56 1.64 1.70 1.73 1.77 1.75 1.68 1.59 1.54
0.50 0.62 0.39 0.30 0.26 0.29 0.37 0.34 0.29 0.50 0.35 0.28 0.29 0.36 0.50 0.54 0.54 0.56 0.60 0.58 0.56 0.57 0.65 0.75 0.79 0.75 0.72 0.73 0.72 0.72 0.80 0.92 0.99 1.00 1.09 1.14 1.21 1.25 1.32 1.39 1.41 1.41 1.43 1.47
0.25 0.39 0.32 0.24 0.24 0.22 0.22 0.19 0.28 0.53 0.49 0.34 0.25 0.28 0.50 0.53 0.53 0.52 0.50 0.50 0.49 0.54 0.60 0.60 0.59 0.56 0.58 0.63 0.67 0.66 0.68 0.74 0.76 0.75 0.80 0.82 0.84 0.90 0.99 1.09 1.08 1.06 1.11 1.18
0.15 0.26 0.28 0.24 0.26 0.20 0.16 0.18 0.24 0.35 0.32 0.29 0.21 0.30 0.34 0.42 0.45 0.44 0.41 0.42 0.43 0.47 0.47 0.45 0.42 0.42 0.45 0.48 0.49 0.49 0.52 0.59 0.60 0.54 0.55 0.59 0.62 0.65 0.75 0.88 0.96 0.98 0.97 0.95
0.11 0.18 0.22 0.18 0.10 0.06 0.08 0.12 0.21 0.36 0.26 0.21 0.18 0.25 0.25 0.28 0.31 0.30 0.30 0.31 0.33 0.36 0.37 0.37 0.35 0.35 0.36 0.36 0.37 0.40 0.44 0.48 0.47 0.42 0.42 0.43 0.46 0.48 0.53 0.64 0.74 0.78 0.83 0.86
0.11 0.15 0.23 0.24 0.16 0.10 0.11 0.11 0.14 0.30 0.46 0.30 0.23 0.25 0.25 0.24 0.23 0.22 0.24 0.26 0.27 0.26 0.25 0.25 0.24 0.24 0.25 0.27 0.31 0.35 0.33 0.32 0.32 0.33 0.33 0.34 0.35 0.35 0.37 0.43 0.49 0.53 0.59 0.69
0.16 0.11 0.14 0.17 0.13 0.18 0.20 0.11 0.15 0.48 0.61 0.22 0.10 0.17 0.18 0.18 0.18 0.21 0.24 0.22 0.20 0.18 0.16 0.15 0.13 0.12 0.14 0.19 0.22 0.23 0.22 0.23 0.26 0.28 0.28 0.28 0.28 0.30 0.31 0.32 0.35 0.37 0.39 0.43
0.12 0.11 0.07 0.06 0.09 0.21 0.22 0.14 0.16 0.31 0.22 0.19 0.09 0.09 0.11 0.11 0.14 0.17 0.19 0.15 0.11 0.10 0.08 0.07 0.08 0.08 0.10 0.13 0.16 0.17 0.19 0.22 0.25 0.25 0.23 0.22 0.23 0.23 0.25 0.24 0.24 0.23 0.23 0.24
0.12 0.12 0.08 0.07 0.07 0.12 0.16 0.09 0.08 0.09 0.07 0.07 0.06 0.07 0.06 0.10 0.14 0.17 0.16 0.12 0.09 0.07 0.06 0.04 0.04 0.05 0.06 0.10 0.17 0.22 0.27 0.27 0.25 0.23 0.21 0.20 0.20 0.21 0.22 0.20 0.18 0.16 0.17 0.18
0.07 0.10 0.16 0.09 0.03 0.11 0.14 0.08 0.07 0.05 0.03 0.05 0.07 0.06 0.07 0.15 0.21 0.23 0.17 0.10 0.06 0.05 0.04 0.03 0.02 0.03 0.06 0.13 0.28 0.40 0.47 0.42 0.34 0.30 0.25 0.23 0.23 0.22 0.23 0.23 0.23 0.22 0.22 0.24
0.05 0.10 0.22 0.15 0.09 0.19 0.13 0.06 0.03 0.02 0.03 0.05 0.05 0.06 0.08 0.12 0.16 0.16 0.10 0.05 0.04 0.03 0.03 0.02 0.02 0.04 0.08 0.17 0.30 0.39 0.47 0.50 0.45 0.41 0.39 0.36 0.36 0.38 0.40 0.43 0.42 0.41 0.41 0.41
0.03 0.12 0.26 0.21 0.15 0.08 0.04 0.03 0.03 0.04 0.04 0.04 0.05 0.04 0.04 0.05 0.10 0.10 0.06 0.04 0.03 0.02 0.02 0.02 0.02 0.05 0.10 0.17 0.25 0.34 0.43 0.48 0.53 0.58 0.63 0.62 0.61 0.65 0.68 0.73 0.75 0.72 0.69 0.68
0.05 0.11 0.28 0.25 0.19 0.05 0.02 0.01 0.02 0.04 0.07 0.03 0.04 0.03 0.03 0.04 0.09 0.10 0.08 0.07 0.05 0.04 0.04 0.04 0.05 0.07 0.13 0.21 0.31 0.47 0.58 0.64 0.66 0.72 0.78 0.75 0.74 0.75 0.75 0.76 0.76 0.73 0.67 0.65
0.11 0.19 0.27 0.23 0.19 0.04 0.02 0.01 0.01 0.05 0.07 0.03 0.03 0.04 0.04 0.06 0.08 0.06 0.08 0.10 0.11 0.11 0.12 0.13 0.16 0.20 0.28 0.36 0.50 0.72 0.83 0.79 0.73 0.72 0.68 0.62 0.58 0.54 0.50 0.48 0.46 0.44 0.40 0.37
0.05 0.10 0.11 0.12 0.16 0.07 0.02 0.02 0.04 0.05 0.03 0.02 0.03 0.05 0.06 0.05 0.05 0.05 0.05 0.08 0.13 0.17 0.18 0.20 0.26 0.32 0.38 0.41 0.48 0.57 0.60 0.55 0.50 0.45 0.38 0.31 0.29 0.27 0.25 0.24 0.23 0.21 0.19 0.17
0.06 0.07 0.08 0.08 0.08 0.04 0.03 0.03 0.03 0.03 0.03 0.03 0.05 0.06 0.05 0.05 0.04 0.04 0.05 0.06 0.08 0.10 0.11 0.12 0.13 0.15 0.17 0.18 0.20 0.22 0.20 0.17 0.16 0.14 0.12 0.10 0.09 0.09 0.09 0.09 0.08 0.07 0.07 0.06
0.08 0.05 0.07 0.07 0.05 0.03 0.02 0.02 0.02 0.03 0.03 0.03 0.04 0.05 0.05 0.06 0.05 0.04 0.05 0.06 0.06 0.06 0.06 0.07 0.07 0.06 0.06 0.06 0.06 0.05 0.05 0.05 0.05 0.05 0.05 0.05 0.05 0.05 0.06 0.06 0.06 0.06 0.06 0.07
0.07 0.07 0.09 0.09 0.05 0.04 0.03 0.02 0.03 0.03 0.02 0.02 0.03 0.03 0.04 0.05 0.06 0.06 0.07 0.07 0.07 0.07 0.06 0.06 0.06 0.06 0.06 0.06 0.05 0.05 0.05 0.05 0.05 0.05 0.06 0.06 0.07 0.07 0.07 0.08 0.09 0.10 0.10 0.11
0.04 0.06 0.11 0.10 0.05 0.05 0.04 0.02 0.02 0.03 0.03 0.02 0.02 0.03 0.04 0.04 0.05 0.05 0.05 0.05 0.06 0.06 0.07 0.07 0.07 0.07 0.07 0.07 0.07 0.07 0.08 0.09 0.09 0.09 0.09 0.10 0.11 0.11 0.12 0.13 0.13 0.16 0.16 0.18